MM3NTX-13 Weather Reports


time (UTC)temp
F
wind
direction
speed
knots
gust
knots
rain 1hr
in
rain 24hr
in
rain mn
in
humidity
%
barometer
mb
20260506073020 43 68 0.9 1.7 0.00 0.00 0.00 73 1016.4
20260506072119 43 68 0.9 1.7 0.00 0.00 0.00 75 1016.4
20260506071219 42 68 0.9 1.7 0.00 0.00 0.00 77 1016.1
20260506061819 40 68 0.0 1.7 0.00 0.00 0.00 84 1016.0
20260506044823 37 68 0.9 1.7 0.00 0.00 0.00 90 1016.0
20260506043023 37 68 0.0 1.7 0.00 0.00 0.00 90 1016.1
20260506041219 37 0 0.0 0.0 0.00 0.00 0.00 90 1016.2
20260506040320 37 0 0.0 0.0 0.00 0.00 0.00 90 1015.9
20260506035420 37 0 0.0 0.0 0.00 0.00 0.00 90 1016.0
20260506033620 37 0 0.0 0.0 0.00 0.00 0.00 90 1016.0
20260506031820 37 0 0.0 0.0 0.00 0.00 0.00 89 1016.2
20260506030920 38 0 0.0 0.0 0.00 0.00 0.00 88 1016.3
20260506030020 38 0 0.0 0.0 0.00 0.00 0.00 88 1016.2
20260506025120 38 0 0.0 0.0 0.00 0.00 0.00 87 1016.3
20260506024220 38 0 0.0 0.0 0.00 0.00 0.00 86 1016.4
20260506023320 38 0 0.0 0.0 0.00 0.00 0.00 86 1016.4
20260506022420 38 68 0.0 1.7 0.00 0.00 0.00 84 1016.4
20260506021520 39 68 0.0 1.7 0.00 0.00 0.00 83 1016.3
20260506015720 39 0 0.0 0.0 0.00 0.00 0.00 84 1016.3
20260506014820 39 0 0.0 0.0 0.00 0.00 0.00 83 1016.4
20260506013920 39 68 0.9 1.7 0.00 0.00 0.00 83 1016.5
20260506013020 39 68 0.0 1.7 0.00 0.00 0.00 84 1016.4
20260506012120 39 0 0.0 0.0 0.00 0.00 0.00 84 1016.4
20260506011220 39 0 0.0 0.0 0.00 0.00 0.00 84 1016.5
20260506010320 39 0 0.0 0.0 0.00 0.00 0.00 84 1016.5
20260506005420 39 0 0.0 0.0 0.00 0.00 0.00 85 1016.5
20260506003620 38 0 0.0 0.0 0.00 0.00 0.00 86 1016.7
20260506002720 39 0 0.0 0.0 0.00 0.00 0.00 86 1016.8
20260506001820 39 0 0.0 0.0 0.00 0.00 0.00 86 1016.6
20260506000920 39 0 0.0 0.0 0.00 0.00 0.00 85 1016.4
20260506000020 39 0 0.0 0.0 0.00 0.00 0.00 82 1016.6
20260505235120 40 0 0.0 0.0 0.00 0.00 0.00 80 1016.7
20260505234222 40 68 0.0 1.7 0.00 0.00 0.00 80 1016.4
20260505232420 40 68 0.0 1.7 0.00 0.00 0.00 80 1016.7
20260505231520 40 68 0.9 1.7 0.00 0.00 0.00 81 1016.7
20260505230621 40 68 0.0 1.7 0.00 0.00 0.00 81 1016.8
20260505225720 40 0 0.0 0.0 0.00 0.00 0.00 80 1017.1
20260505224820 41 0 0.0 0.0 0.00 0.00 0.00 78 1016.8
20260505223920 41 0 0.0 0.0 0.00 0.00 0.00 78 1016.9
20260505223020 41 68 0.0 1.7 0.00 0.00 0.00 78 1017.1
20260505222120 41 68 0.9 1.7 0.00 0.00 0.00 77 1016.8
20260505221220 41 68 0.0 1.7 0.00 0.00 0.00 77 1016.9
20260505220320 41 68 0.0 1.7 0.00 0.00 0.00 77 1017.0
20260505215420 41 68 0.0 1.7 0.00 0.00 0.00 76 1017.0
20260505213620 42 68 0.0 1.7 0.00 0.00 0.00 76 1016.9
20260505212720 42 68 0.0 1.7 0.00 0.00 0.00 75 1016.9
20260505210920 42 68 0.9 1.7 0.00 0.00 0.00 75 1016.8
20260505210020 42 68 1.7 1.7 0.00 0.00 0.00 74 1016.9
20260505205120 42 60 1.7 3.5 0.00 0.00 0.00 74 1016.8
20260505204220 42 169 1.7 3.5 0.00 0.00 0.00 73 1016.9
20260505203320 42 196 1.7 3.5 0.00 0.00 0.00 72 1016.8
20260505201520 43 168 1.7 3.5 0.00 0.00 0.00 72 1016.8
20260505195720 43 188 2.6 3.5 0.00 0.00 0.00 71 1016.6
20260505194819 43 170 2.6 3.5 0.00 0.00 0.00 72 1016.6
20260505193919 43 187 1.7 3.5 0.00 0.00 0.00 71 1016.6
20260505193020 43 148 2.6 3.5 0.00 0.00 0.00 71 1016.4
20260505192120 44 172 2.6 5.2 0.00 0.00 0.00 70 1016.4
20260505191220 44 155 3.5 6.1 0.00 0.00 0.00 72 1016.4
20260505190320 44 171 3.5 6.1 0.00 0.00 0.00 71 1016.2
20260505185421 44 250 2.6 3.5 0.00 0.00 0.00 72 1016.1
20260505184520 44 218 3.5 6.1 0.00 0.00 0.00 74 1016.3
20260505183619 45 154 2.6 5.2 0.00 0.00 0.00 73 1016.3
20260505182720 45 185 2.6 5.2 0.00 0.00 0.00 73 1016.3
20260505181820 45 161 2.6 5.2 0.00 0.00 0.00 72 1016.2
20260505180920 45 321 3.5 6.1 0.00 0.00 0.00 72 1016.2
20260505180020 45 34 3.5 6.1 0.00 0.00 0.00 71 1016.2
20260505175120 46 145 3.5 6.1 0.00 0.00 0.00 71 1016.1
20260505174220 46 146 3.5 5.2 0.00 0.00 0.00 69 1016.0
20260505172419 46 16 3.5 5.2 0.00 0.00 0.00 70 1016.2
20260505171520 46 186 3.5 3.5 0.00 0.00 0.00 70 1016.3
20260505165720 47 159 2.6 3.5 0.00 0.00 0.00 72 1015.8
20260505164820 47 94 2.6 5.2 0.00 0.00 0.00 71 1016.2
20260505163920 47 160 3.5 7.0 0.00 0.00 0.00 70 1016.0
20260505163020 47 8 3.5 5.2 0.00 0.00 0.00 71 1016.1
20260505161220 47 16 4.3 6.1 0.00 0.00 0.00 71 1015.8
20260505152720 48 346 3.5 3.5 0.00 0.00 0.00 69 1015.6
20260505151820 48 163 4.3 5.2 0.00 0.00 0.00 68 1015.6
20260505150920 49 292 4.3 5.2 0.00 0.00 0.00 68 1015.7
20260505140620 49 149 3.5 6.1 0.00 0.00 0.00 69 1015.3
20260505124521 49 14 3.5 7.0 0.00 0.00 0.00 72 1015.1
20260505123620 49 347 3.5 6.1 0.00 0.00 0.00 72 1015.2
20260505122720 49 13 4.3 5.2 0.00 0.00 0.00 74 1015.2
20260505121820 49 15 5.2 7.8 0.00 0.00 0.00 73 1014.9
20260505120920 51 32 4.3 7.8 0.00 0.00 0.00 69 1014.7
20260505120020 52 17 3.5 7.0 0.00 0.00 0.00 63 1014.7
20260505115120 52 9 4.3 7.8 0.00 0.00 0.00 61 1014.7
20260505113320 53 20 3.5 6.1 0.00 0.00 0.00 57 1014.6
20260505112420 53 343 3.5 6.1 0.00 0.00 0.00 56 1014.5
20260505111520 53 323 2.6 5.2 0.00 0.00 0.00 59 1014.5
20260505110620 53 27 2.6 5.2 0.00 0.00 0.00 61 1014.5
20260505102120 51 41 3.5 5.2 0.00 0.00 0.00 66 1014.6
20260505100320 51 40 2.6 3.5 0.00 0.00 0.00 65 1014.5
20260505095420 51 42 3.5 5.2 0.00 0.00 0.00 67 1014.4
20260505093620 51 23 2.6 5.2 0.00 0.00 0.00 68 1014.3
20260505090920 50 17 2.6 5.2 0.00 0.00 0.00 70 1014.4
20260505090020 49 20 3.5 6.1 0.00 0.00 0.00 72 1014.3
20260505085120 50 12 3.5 6.1 0.00 0.00 0.00 71 1014.3
20260505084220 50 9 2.6 6.1 0.00 0.00 0.00 72 1014.2
20260505083320 49 340 2.6 5.2 0.00 0.00 0.00 77 1014.2
20260505082420 50 13 3.5 7.0 0.00 0.00 0.00 80 1014.2
20260505081520 48 12 4.3 7.0 0.00 0.00 0.00 80 1014.3
20260505080620 47 299 0.9 1.7 0.00 0.00 0.00 84 1014.1
20260505074820 47 291 0.9 1.7 0.00 0.00 0.00 86 1014.1
20260505073920 47 299 1.7 1.7 0.00 0.00 0.00 88 1013.9